LGS2282 LKPR-EBBR

Flight info

Callsign LGS2282
Flight time 1h 12m
Altitude 32000
Route BALTU DCT DONAD DCT RAPET Z93 KODUK DCT MARZA DCT TEKTU DCT TESGA DCT UMUPU T880 ADMUM/N0362F240 T880 BATTY
Aircraft B738/M-SDE2E3FGHIRWXY/LB1

Departure

Time 2026-05-07 16:48
Airport Václav Havel Airport Prague (LKPR)

Arrival

Time 2026-05-07 18:00
Airport Brussels Airport (EBBR)
Time Latitude Longitude Altitude Speed Heading
2026-05-07 16:17 50.10701 14.26383 1171 ft 0 kts 214°
2026-05-07 16:33 50.10709 14.26391 1169 ft 4 kts 212°
2026-05-07 16:33 50.10732 14.26411 1168 ft 4 kts 201°
2026-05-07 16:34 50.10757 14.26420 1171 ft 4 kts 174°
2026-05-07 16:34 50.10775 14.26408 1168 ft 1 kts 124°
2026-05-07 16:34 50.10776 14.26407 1168 ft 1 kts 124°
2026-05-07 16:40 50.10771 14.26413 1171 ft 3 kts 140°
2026-05-07 16:40 50.10760 14.26416 1170 ft 1 kts 172°
2026-05-07 16:41 50.10752 14.26412 1171 ft 1 kts 210°
2026-05-07 16:41 50.10755 14.26395 1169 ft 4 kts 297°
2026-05-07 16:41 50.10791 14.26299 1172 ft 15 kts 304°
2026-05-07 16:41 50.10800 14.26264 1169 ft 1 kts 278°
2026-05-07 16:42 50.10745 14.26192 1170 ft 15 kts 213°
2026-05-07 16:42 50.10662 14.26105 1170 ft 14 kts 214°
2026-05-07 16:42 50.10581 14.26025 1171 ft 13 kts 213°
2026-05-07 16:42 50.10498 14.25993 1171 ft 13 kts 150°
2026-05-07 16:43 50.10439 14.26101 1175 ft 14 kts 127°
2026-05-07 16:43 50.10368 14.26248 1175 ft 20 kts 128°
2026-05-07 16:43 50.10276 14.26438 1175 ft 24 kts 127°
2026-05-07 16:43 50.10167 14.26664 1176 ft 27 kts 127°
2026-05-07 16:44 50.10059 14.26886 1189 ft 25 kts 128°
2026-05-07 16:44 50.09958 14.27094 1198 ft 23 kts 128°
2026-05-07 16:44 50.09863 14.27293 1201 ft 23 kts 129°
2026-05-07 16:44 50.09752 14.27466 1205 ft 22 kts 136°
2026-05-07 16:45 50.09639 14.27641 1208 ft 23 kts 135°
2026-05-07 16:45 50.09530 14.27809 1211 ft 22 kts 135°
2026-05-07 16:45 50.09418 14.27980 1214 ft 26 kts 135°
2026-05-07 16:45 50.09281 14.28191 1213 ft 20 kts 135°
2026-05-07 16:46 50.09164 14.28279 1210 ft 17 kts 195°
2026-05-07 16:46 50.09145 14.28261 1210 ft 0 kts 216°
2026-05-07 16:46 50.09143 14.28259 1210 ft 4 kts 216°
2026-05-07 16:47 50.09094 14.28121 1208 ft 20 kts 269°
2026-05-07 16:47 50.09131 14.27989 1209 ft 0 kts 307°
2026-05-07 16:47 50.09140 14.27970 1210 ft 7 kts 307°
2026-05-07 16:48 50.09265 14.27711 1212 ft 69 kts 306°
2026-05-07 16:48 50.09717 14.26775 1208 ft 144 kts 306°
2026-05-07 16:48 50.10410 14.25349 1740 ft 174 kts 307°
2026-05-07 16:48 50.10901 14.24370 2640 ft 169 kts 306°
2026-05-07 16:49 50.11604 14.22905 3689 ft 171 kts 305°
2026-05-07 16:49 50.12322 14.21398 4610 ft 174 kts 304°
2026-05-07 16:49 50.13060 14.19852 5346 ft 181 kts 303°
2026-05-07 16:49 50.13832 14.18238 5980 ft 197 kts 303°
2026-05-07 16:50 50.14712 14.16393 6258 ft 227 kts 303°
2026-05-07 16:50 50.15714 14.14300 6523 ft 255 kts 304°
2026-05-07 16:50 50.16829 14.11981 6965 ft 274 kts 304°
2026-05-07 16:50 50.17987 14.09584 7748 ft 279 kts 304°
2026-05-07 16:51 50.19167 14.07138 8620 ft 282 kts 304°
2026-05-07 16:51 50.20352 14.04674 9493 ft 286 kts 303°
2026-05-07 16:51 50.21555 14.02167 10276 ft 291 kts 303°
2026-05-07 16:51 50.22490 13.99291 10532 ft 308 kts 279°
2026-05-07 16:52 50.22449 13.95894 10814 ft 322 kts 253°
2026-05-07 16:52 50.21789 13.92568 11445 ft 328 kts 250°
2026-05-07 16:52 50.21055 13.89184 12266 ft 330 kts 249°
2026-05-07 16:52 50.20308 13.85780 13110 ft 332 kts 249°
2026-05-07 16:53 50.19598 13.82333 13895 ft 336 kts 255°
2026-05-07 16:53 50.19302 13.78686 14599 ft 342 kts 266°
2026-05-07 16:53 50.19300 13.74958 15309 ft 345 kts 268°
2026-05-07 16:53 50.19326 13.71184 16012 ft 349 kts 268°
2026-05-07 16:54 50.19356 13.67379 16702 ft 353 kts 268°
2026-05-07 16:54 50.19382 13.63537 17398 ft 356 kts 267°
2026-05-07 16:54 50.19402 13.59660 18078 ft 359 kts 267°
2026-05-07 16:54 50.19416 13.55741 18686 ft 363 kts 267°
2026-05-07 16:55 50.19427 13.51785 19276 ft 365 kts 267°
2026-05-07 16:55 50.19434 13.47799 19883 ft 368 kts 267°
2026-05-07 16:55 50.19438 13.43783 20445 ft 372 kts 266°
2026-05-07 16:55 50.19441 13.39734 21011 ft 374 kts 266°
2026-05-07 16:56 50.19442 13.35659 21584 ft 377 kts 266°
2026-05-07 16:56 50.19441 13.31549 22131 ft 380 kts 266°
2026-05-07 16:56 50.19435 13.23269 23177 ft 387 kts 266°
2026-05-07 16:57 50.19429 13.19047 23684 ft 390 kts 266°
2026-05-07 16:57 50.19422 13.14795 24123 ft 392 kts 266°
2026-05-07 16:57 50.19414 13.10519 24596 ft 393 kts 266°
2026-05-07 16:57 50.19405 13.06238 25069 ft 395 kts 266°
2026-05-07 16:58 50.19393 13.01986 25507 ft 397 kts 266°
2026-05-07 16:58 50.19380 12.97658 25943 ft 399 kts 266°
2026-05-07 16:58 50.19365 12.93315 26370 ft 401 kts 266°
2026-05-07 16:58 50.19348 12.88953 26838 ft 402 kts 266°
2026-05-07 16:59 50.19331 12.84605 27433 ft 399 kts 265°
2026-05-07 16:59 50.19313 12.80301 28076 ft 395 kts 265°
2026-05-07 16:59 50.19292 12.76003 28673 ft 392 kts 265°
2026-05-07 16:59 50.19270 12.71761 29249 ft 390 kts 265°
2026-05-07 17:00 50.19246 12.67586 29806 ft 388 kts 265°
2026-05-07 17:00 50.19221 12.63380 30314 ft 386 kts 265°
2026-05-07 17:00 50.19194 12.59194 30743 ft 385 kts 265°
2026-05-07 17:00 50.19165 12.55029 31169 ft 384 kts 265°
2026-05-07 17:01 50.19135 12.50858 31558 ft 384 kts 265°
2026-05-07 17:01 50.19104 12.46694 31941 ft 384 kts 265°
2026-05-07 17:01 50.19037 12.38264 32026 ft 388 kts 265°
2026-05-07 17:02 50.18981 12.29917 32026 ft 381 kts 265°
2026-05-07 17:02 50.18964 12.21631 32030 ft 383 kts 265°
2026-05-07 17:03 50.18944 12.13315 32030 ft 383 kts 265°
2026-05-07 17:03 50.18914 12.05005 32025 ft 383 kts 265°
2026-05-07 17:04 50.18878 11.96749 32028 ft 382 kts 265°
2026-05-07 17:04 50.18837 11.88466 32024 ft 382 kts 265°
2026-05-07 17:05 50.18800 11.80180 32023 ft 381 kts 266°
2026-05-07 17:05 50.18909 11.71901 32023 ft 381 kts 267°
2026-05-07 17:06 50.19049 11.63624 32029 ft 381 kts 267°
2026-05-07 17:06 50.19171 11.55348 32028 ft 382 kts 266°
2026-05-07 17:07 50.19277 11.47060 32035 ft 382 kts 266°
2026-05-07 17:07 50.19375 11.38754 32036 ft 383 kts 266°
2026-05-07 17:08 50.19467 11.30433 32037 ft 384 kts 266°
2026-05-07 17:08 50.19552 11.22140 32033 ft 385 kts 266°
2026-05-07 17:09 50.19633 11.13779 32035 ft 386 kts 266°
2026-05-07 17:09 50.19709 11.05395 32035 ft 386 kts 266°
2026-05-07 17:10 50.19779 10.96999 32041 ft 387 kts 266°
2026-05-07 17:10 50.19396 10.88666 32043 ft 384 kts 259°
2026-05-07 17:11 50.18663 10.80399 32042 ft 385 kts 258°
2026-05-07 17:11 50.17934 10.72113 32036 ft 385 kts 259°
2026-05-07 17:12 50.17217 10.63829 32042 ft 386 kts 259°
2026-05-07 17:12 50.16502 10.55583 32043 ft 387 kts 259°
2026-05-07 17:13 50.15776 10.47263 32047 ft 387 kts 259°
2026-05-07 17:13 50.15045 10.38945 32040 ft 388 kts 259°
2026-05-07 17:14 50.14352 10.30592 32036 ft 390 kts 264°
2026-05-07 17:14 50.14853 10.22125 32045 ft 398 kts 280°
2026-05-07 17:15 50.16376 10.13798 32047 ft 400 kts 282°
2026-05-07 17:15 50.17937 10.05528 32048 ft 399 kts 282°
2026-05-07 17:16 50.19474 9.97212 32052 ft 399 kts 282°
2026-05-07 17:16 50.20990 9.88870 32054 ft 399 kts 282°
2026-05-07 17:17 50.22494 9.80521 32052 ft 399 kts 282°
2026-05-07 17:17 50.23993 9.72161 32058 ft 399 kts 282°
2026-05-07 17:18 50.25490 9.63774 32046 ft 400 kts 282°
2026-05-07 17:18 50.26981 9.55379 32049 ft 401 kts 282°
2026-05-07 17:19 50.28458 9.47025 32047 ft 402 kts 282°
2026-05-07 17:19 50.29940 9.38603 32052 ft 402 kts 282°
2026-05-07 17:20 50.31423 9.30137 32053 ft 403 kts 282°
2026-05-07 17:20 50.32902 9.21660 32052 ft 404 kts 282°
2026-05-07 17:21 50.34380 9.13150 32046 ft 405 kts 283°
2026-05-07 17:21 50.36019 9.04693 32056 ft 406 kts 285°
2026-05-07 17:22 50.37724 8.96308 32047 ft 406 kts 285°
2026-05-07 17:22 50.39413 8.87855 32053 ft 406 kts 284°
2026-05-07 17:23 50.41078 8.79406 32052 ft 405 kts 284°
2026-05-07 17:23 50.42733 8.70963 32052 ft 404 kts 284°
2026-05-07 17:24 50.44372 8.62532 32051 ft 403 kts 283°
2026-05-07 17:24 50.45424 8.53940 32059 ft 400 kts 276°
2026-05-07 17:25 50.46227 8.45290 32056 ft 400 kts 276°
2026-05-07 17:25 50.47043 8.36640 32056 ft 400 kts 276°
2026-05-07 17:26 50.47883 8.27983 32048 ft 401 kts 277°
2026-05-07 17:26 50.48729 8.19318 32046 ft 401 kts 277°
2026-05-07 17:27 50.49564 8.10725 32046 ft 400 kts 277°
2026-05-07 17:27 50.50397 8.02076 32053 ft 400 kts 277°
2026-05-07 17:28 50.51225 7.93413 32052 ft 401 kts 277°
2026-05-07 17:28 50.52031 7.84921 32033 ft 384 kts 277°
2026-05-07 17:29 50.52807 7.76668 32054 ft 382 kts 277°
2026-05-07 17:29 50.53190 7.72565 31813 ft 384 kts 277°
2026-05-07 17:29 50.53574 7.68438 31581 ft 378 kts 277°
2026-05-07 17:30 50.53952 7.64363 31202 ft 375 kts 277°
2026-05-07 17:30 50.54325 7.60323 30866 ft 372 kts 277°
2026-05-07 17:30 50.54695 7.56305 30516 ft 369 kts 277°
2026-05-07 17:30 50.55061 7.52325 30166 ft 367 kts 277°
2026-05-07 17:31 50.55422 7.48371 29766 ft 364 kts 277°
2026-05-07 17:31 50.55779 7.44442 29374 ft 361 kts 277°
2026-05-07 17:31 50.55975 7.40531 28998 ft 357 kts 270°
2026-05-07 17:31 50.56004 7.36647 28640 ft 353 kts 270°
2026-05-07 17:32 50.56012 7.32799 28286 ft 350 kts 269°
2026-05-07 17:32 50.56025 7.28993 27924 ft 347 kts 270°
2026-05-07 17:32 50.56047 7.25202 27559 ft 345 kts 270°
2026-05-07 17:32 50.56063 7.22712 27323 ft 343 kts 270°
2026-05-07 17:33 50.56098 7.17722 26866 ft 340 kts 270°
2026-05-07 17:33 50.56090 7.15265 26630 ft 338 kts 268°
2026-05-07 17:33 50.55977 7.10401 26186 ft 335 kts 267°
2026-05-07 17:33 50.55875 7.06755 25845 ft 333 kts 267°
2026-05-07 17:34 50.55782 7.03123 25507 ft 331 kts 267°
2026-05-07 17:34 50.55694 6.99522 25168 ft 329 kts 267°
2026-05-07 17:34 50.55637 6.97097 24941 ft 328 kts 267°
2026-05-07 17:34 50.55552 6.93564 24585 ft 327 kts 267°
2026-05-07 17:35 50.55460 6.89994 24229 ft 327 kts 267°
2026-05-07 17:35 50.55365 6.86382 23875 ft 326 kts 267°
2026-05-07 17:35 50.55272 6.82877 23546 ft 324 kts 267°
2026-05-07 17:35 50.55179 6.79338 23160 ft 323 kts 267°
2026-05-07 17:36 50.55084 6.75817 22802 ft 321 kts 267°
2026-05-07 17:36 50.54989 6.72335 22479 ft 318 kts 267°
2026-05-07 17:36 50.54964 6.68873 22141 ft 316 kts 273°
2026-05-07 17:36 50.55282 6.65475 21844 ft 313 kts 279°
2026-05-07 17:37 50.55699 6.62116 21579 ft 312 kts 280°
2026-05-07 17:37 50.56135 6.58749 21308 ft 318 kts 283°
2026-05-07 17:37 50.56814 6.55401 20849 ft 322 kts 289°
2026-05-07 17:37 50.57612 6.52131 20503 ft 320 kts 290°
2026-05-07 17:38 50.58433 6.48870 20154 ft 319 kts 290°
2026-05-07 17:38 50.59248 6.45626 19821 ft 318 kts 290°
2026-05-07 17:38 50.60051 6.42397 19487 ft 316 kts 290°
2026-05-07 17:38 50.60843 6.39180 19164 ft 314 kts 290°
2026-05-07 17:39 50.61627 6.35970 18841 ft 313 kts 290°
2026-05-07 17:39 50.62404 6.32771 18524 ft 312 kts 290°
2026-05-07 17:39 50.63173 6.29585 18180 ft 310 kts 290°
2026-05-07 17:39 50.63926 6.26457 17825 ft 309 kts 290°
2026-05-07 17:40 50.64692 6.23266 17483 ft 306 kts 290°
2026-05-07 17:40 50.65441 6.20138 17168 ft 304 kts 290°
2026-05-07 17:40 50.66185 6.17028 16837 ft 302 kts 290°
2026-05-07 17:40 50.66922 6.13938 16529 ft 300 kts 290°
2026-05-07 17:41 50.67645 6.10904 16223 ft 298 kts 290°
2026-05-07 17:41 50.68369 6.07859 15908 ft 296 kts 290°
2026-05-07 17:41 50.69090 6.04825 15613 ft 294 kts 290°
2026-05-07 17:41 50.69804 6.01812 15308 ft 293 kts 290°
2026-05-07 17:42 50.70515 5.98811 15009 ft 291 kts 290°
2026-05-07 17:42 50.71221 5.95823 14704 ft 290 kts 290°
2026-05-07 17:42 50.71929 5.92825 14233 ft 295 kts 290°
2026-05-07 17:42 50.72650 5.89769 13613 ft 299 kts 290°
2026-05-07 17:43 50.73375 5.86687 12950 ft 300 kts 290°
2026-05-07 17:43 50.74101 5.83600 12298 ft 301 kts 290°
2026-05-07 17:43 50.74829 5.80501 11700 ft 300 kts 290°
2026-05-07 17:43 50.75548 5.77436 11283 ft 293 kts 290°
2026-05-07 17:44 50.76243 5.74467 11110 ft 283 kts 290°
2026-05-07 17:44 50.76920 5.71572 11058 ft 280 kts 290°
2026-05-07 17:44 50.77595 5.68683 11049 ft 280 kts 290°
2026-05-07 17:44 50.78268 5.65797 11048 ft 280 kts 290°
2026-05-07 17:45 50.78942 5.62904 11050 ft 281 kts 290°
2026-05-07 17:45 50.79616 5.60006 11050 ft 281 kts 290°
2026-05-07 17:45 50.80287 5.57117 11045 ft 278 kts 290°
2026-05-07 17:45 50.80939 5.54307 11036 ft 267 kts 290°
2026-05-07 17:46 50.81560 5.51627 11046 ft 251 kts 290°
2026-05-07 17:46 50.82141 5.49114 11048 ft 236 kts 290°
2026-05-07 17:46 50.82689 5.46744 11052 ft 230 kts 290°
2026-05-07 17:46 50.83247 5.44329 11071 ft 233 kts 290°
2026-05-07 17:47 50.83810 5.41884 11085 ft 239 kts 289°
2026-05-07 17:47 50.84375 5.39430 11080 ft 241 kts 290°
2026-05-07 17:47 50.84948 5.36943 11068 ft 239 kts 289°
2026-05-07 17:47 50.85515 5.34473 11062 ft 238 kts 289°
2026-05-07 17:48 50.86077 5.32025 11065 ft 236 kts 289°
2026-05-07 17:48 50.86638 5.29580 11063 ft 235 kts 289°
2026-05-07 17:48 50.87194 5.27148 11064 ft 235 kts 289°
2026-05-07 17:48 50.87751 5.24713 11071 ft 235 kts 289°
2026-05-07 17:49 50.88308 5.22277 11080 ft 236 kts 289°
2026-05-07 17:49 50.88868 5.19821 11078 ft 237 kts 289°
2026-05-07 17:49 50.89429 5.17363 10945 ft 238 kts 289°
2026-05-07 17:49 50.89992 5.14887 10640 ft 240 kts 289°
2026-05-07 17:50 50.90574 5.12327 9938 ft 258 kts 289°
2026-05-07 17:50 50.90986 5.10513 9510 ft 268 kts 289°
2026-05-07 17:50 50.91088 5.10062 9432 ft 269 kts 289°
2026-05-07 17:50 50.91718 5.07249 9057 ft 270 kts 285°
2026-05-07 17:51 50.91947 5.04320 8758 ft 267 kts 276°
2026-05-07 17:51 50.92544 5.01565 8426 ft 267 kts 304°
2026-05-07 17:51 50.93866 4.99597 8127 ft 266 kts 328°
2026-05-07 17:51 50.95483 4.98178 7850 ft 265 kts 332°
2026-05-07 17:52 50.97120 4.96842 7548 ft 264 kts 332°
2026-05-07 17:52 50.98749 4.95524 7273 ft 262 kts 332°
2026-05-07 17:52 51.00372 4.94210 6992 ft 261 kts 332°
2026-05-07 17:52 51.01987 4.92899 6706 ft 260 kts 332°
2026-05-07 17:53 51.03596 4.91589 6430 ft 259 kts 333°
2026-05-07 17:53 51.05197 4.90279 6139 ft 258 kts 333°
2026-05-07 17:53 51.06792 4.88967 5830 ft 258 kts 333°
2026-05-07 17:53 51.08379 4.87649 5546 ft 257 kts 333°
2026-05-07 17:54 51.09957 4.86327 5287 ft 255 kts 333°
2026-05-07 17:54 51.11479 4.84908 5068 ft 252 kts 319°
2026-05-07 17:54 51.12347 4.82601 4875 ft 248 kts 281°
2026-05-07 17:54 51.12159 4.79936 4634 ft 245 kts 243°
2026-05-07 17:55 51.11001 4.78019 4414 ft 241 kts 210°
2026-05-07 17:55 51.09534 4.76747 4191 ft 242 kts 204°
2026-05-07 17:55 51.07896 4.76093 4040 ft 244 kts 181°
2026-05-07 17:55 51.06189 4.76098 3950 ft 244 kts 179°
2026-05-07 17:56 51.04511 4.76123 3824 ft 237 kts 179°
2026-05-07 17:56 51.02888 4.76138 3707 ft 230 kts 179°
2026-05-07 17:56 51.01310 4.76147 3614 ft 223 kts 179°
2026-05-07 17:56 50.99763 4.76059 3317 ft 225 kts 192°
2026-05-07 17:57 50.98423 4.74823 2905 ft 226 kts 231°
2026-05-07 17:57 50.97909 4.73426 2848 ft 218 kts 246°
2026-05-07 17:57 50.97079 4.70485 2762 ft 219 kts 245°
2026-05-07 17:57 50.96457 4.68327 2534 ft 210 kts 245°
2026-05-07 17:58 50.95860 4.66261 2263 ft 202 kts 245°
2026-05-07 17:58 50.95290 4.64290 2050 ft 196 kts 245°
2026-05-07 17:58 50.94719 4.62306 2012 ft 199 kts 245°
2026-05-07 17:58 50.94149 4.60324 1989 ft 195 kts 245°
2026-05-07 17:59 50.93582 4.58400 1693 ft 188 kts 244°
2026-05-07 17:59 50.93017 4.56581 1317 ft 182 kts 243°
2026-05-07 17:59 50.92459 4.54743 758 ft 185 kts 245°
2026-05-07 17:59 50.91973 4.52943 492 ft 170 kts 249°
2026-05-07 18:00 50.91532 4.51258 249 ft 162 kts 246°
2026-05-07 18:00 50.91066 4.49641 117 ft 160 kts 246°
2026-05-07 18:00 50.90661 4.48233 117 ft 99 kts 245°
2026-05-07 18:00 50.90484 4.47735 121 ft 36 kts 226°
2026-05-07 18:01 50.90389 4.47604 119 ft 0 kts 215°
2026-05-07 18:01 50.90387 4.47602 119 ft 0 kts 215°
2026-05-07 18:01 50.90384 4.47598 118 ft 1 kts 215°
2026-05-07 18:01 50.90379 4.47593 120 ft 1 kts 216°
2026-05-07 18:02 50.90378 4.47592 120 ft 0 kts 216°
2026-05-07 18:02 50.90366 4.47579 121 ft 0 kts 210°
2026-05-07 18:02 50.90365 4.47579 121 ft 0 kts 210°
2026-05-07 18:03 50.90332 4.47571 122 ft 7 kts 179°
2026-05-07 18:03 50.90291 4.47524 117 ft 8 kts 222°
2026-05-07 18:03 50.90256 4.47462 118 ft 8 kts 229°
2026-05-07 18:03 50.90208 4.47450 119 ft 7 kts 150°
2026-05-07 18:04 50.90198 4.47525 121 ft 8 kts 74°
2026-05-07 18:04 50.90220 4.47604 119 ft 8 kts 66°
2026-05-07 18:04 50.90226 4.47625 119 ft 0 kts 66°
2026-05-07 18:04 50.90226 4.47629 116 ft 2 kts 77°
2026-05-07 18:05 50.90226 4.47643 118 ft 0 kts 101°
2026-05-07 18:05 50.90218 4.47648 118 ft 2 kts 156°
2026-05-07 18:05 50.90199 4.47660 119 ft 3 kts 156°
2026-05-07 18:05 50.90180 4.47674 117 ft 3 kts 155°
2026-05-07 18:06 50.90161 4.47688 119 ft 3 kts 155°
2026-05-07 18:06 50.90159 4.47689 117 ft 0 kts 155°
2026-05-07 18:06 50.90158 4.47689 117 ft 0 kts 155°